{"data":{"norad_id":64854,"epoch":"2026-05-25T03:08:19.608000Z","epoch_age_seconds":74266,"freshness":"FRESH","line1":"1 64854U 25152N   26145.13078250  .00003079  00000+0  21731-3 0  9991","line2":"2 64854  97.4505   0.5394 0002741  83.4993 276.6546 15.05656534 46927","mean_motion":15.05656534,"eccentricity":0.0002741,"inclination_deg":97.4505,"raan_deg":0.5394,"arg_perigee_deg":83.4993,"mean_anomaly_deg":276.6546,"bstar":0.00021731,"rev_number":4692,"period_min":95.639341873968,"perigee_km":547.59224884896,"apogee_km":551.3899745798,"semimajor_km":6927.6281117144,"source":"CELESTRAK","updated_at":"2026-05-25T13:38:20.614532Z"}}